Location: Oshawa
(43.9000°N, 78.8670°W)
Time: 19:36:02
(UTC-04:00)

S-56A Canister/Altair - All Passes

Search period start: 22 August 2014 00:00
Search period end: 01 September 2014 00:00
Orbit: 632 x 2504 km, 38.9° (Epoch: 22 August)

Date Brightness Start Highest point End Pass type
(mag) Time Alt. Az. Time Alt. Az. Time Alt. Az.
22 Aug - 14:19:55 10° S 14:29:17 28° SE 14:40:33 10° E daylight
22 Aug - 16:21:11 10° SW 16:33:45 57° SSE 16:48:22 10° E daylight
22 Aug - 18:25:43 10° WSW 18:40:06 73° S 18:54:36 10° E daylight
22 Aug - 20:31:49 10° W 20:46:37 62° SSW 20:59:27 10° SE visible
22 Aug - 22:39:14 10° W 22:51:28 33° SW 23:01:29 10° SSE visible
23 Aug - 13:48:22 10° S 13:56:46 24° SE 14:06:55 10° E daylight
23 Aug - 15:48:55 10° SW 16:00:50 54° SSE 16:15:16 10° E daylight
23 Aug - 17:53:01 10° WSW 18:06:57 72° S 18:21:46 10° E daylight
23 Aug - 19:58:49 10° W 20:13:35 64° SSW 20:27:00 10° ESE daylight
23 Aug - 22:05:51 10° W 22:18:48 37° SW 22:29:37 10° SSE visible
24 Aug - 00:19:46 10° WSW 00:21:44 10° WSW 00:23:38 10° SW visible
24 Aug - 13:17:03 10° S 13:24:21 20° SE 13:33:06 10° E daylight
24 Aug - 15:16:45 10° SW 15:27:59 50° SSE 15:42:04 10° E daylight
24 Aug - 17:20:25 10° WSW 17:33:50 71° S 17:48:51 10° E daylight
24 Aug - 19:25:54 10° W 19:40:30 67° SSW 19:54:27 10° ESE daylight
24 Aug - 21:32:35 10° W 21:46:03 41° SW 21:57:36 10° SSE visible
24 Aug - 23:43:35 10° W 23:49:23 14° SW 23:54:41 10° SSW visible
25 Aug - 12:46:03 10° SSE 12:52:01 17° SE 12:59:00 10° E daylight
25 Aug - 14:44:42 10° SW 14:55:14 46° SSE 15:08:48 10° E daylight
25 Aug - 16:47:55 10° WSW 17:00:45 70° S 17:15:51 10° E daylight
25 Aug - 18:53:04 10° W 19:07:24 69° SSW 19:21:47 10° ESE daylight
25 Aug - 20:59:26 10° W 21:13:14 45° SSW 21:25:28 10° SSE visible
25 Aug - 23:09:04 10° W 23:16:57 17° SW 23:24:04 10° SSW visible
26 Aug - 12:15:39 10° SSE 12:19:46 13° ESE 12:24:23 10° E daylight
26 Aug - 14:12:45 10° SSW 14:22:34 42° SE 14:35:28 10° E daylight
26 Aug - 16:15:30 10° WSW 16:27:44 68° SSE 16:42:45 10° E daylight
26 Aug - 18:20:20 10° W 18:34:16 70° S 18:49:01 10° ESE daylight
26 Aug - 20:26:22 10° W 20:40:20 48° SSW 20:53:12 10° SE visible
26 Aug - 22:35:03 10° W 22:44:27 20° SW 22:52:55 10° S visible
27 Aug - 13:40:56 10° SSW 13:50:00 37° SE 14:02:04 10° E daylight
27 Aug - 15:43:12 10° WSW 15:54:46 65° SSE 16:09:36 10° E daylight
27 Aug - 17:47:42 10° W 18:01:09 71° S 18:16:09 10° ESE daylight
27 Aug - 19:53:24 10° W 20:07:23 52° SSW 20:20:49 10° SE daylight
27 Aug - 22:01:20 10° W 22:11:52 24° SW 22:21:27 10° S visible
28 Aug - 13:09:14 10° SSW 13:17:32 33° SE 13:28:37 10° E daylight
28 Aug - 15:10:59 10° WSW 15:21:53 62° SSE 15:36:23 10° E daylight
28 Aug - 17:15:08 10° W 17:28:03 72° S 17:43:11 10° ESE daylight
28 Aug - 19:20:33 10° W 19:34:23 55° SSW 19:48:19 10° SE daylight
28 Aug - 21:27:51 10° W 21:39:13 27° SW 21:49:45 10° S visible
29 Aug - 12:37:40 10° S 12:45:10 28° SE 12:55:05 10° E daylight
29 Aug - 14:38:51 10° SW 14:49:05 59° SSE 15:03:07 10° E daylight
29 Aug - 16:42:41 10° W 16:55:00 72° S 17:10:08 10° ESE daylight
29 Aug - 18:47:47 10° W 19:01:21 58° SSW 19:15:42 10° SE daylight
29 Aug - 20:54:33 10° W 21:06:29 30° SW 21:17:51 10° SSE visible
30 Aug - 12:06:16 10° S 12:12:53 24° SE 12:21:28 10° E daylight
30 Aug - 14:06:49 10° SW 14:16:23 55° SSE 14:29:50 10° E daylight
30 Aug - 16:10:18 10° W 16:21:59 72° S 16:37:01 10° E daylight
30 Aug - 18:15:07 10° W 18:28:19 60° SSW 18:42:58 10° SE daylight
30 Aug - 20:21:24 10° W 20:33:42 34° SW 20:45:46 10° SSE visible
31 Aug - 11:35:04 10° S 11:40:41 19° SE 11:47:44 10° E daylight
31 Aug - 13:34:52 10° SW 13:43:46 51° SSE 13:56:30 10° E daylight
31 Aug - 15:38:00 10° WSW 15:49:03 71° S 16:03:50 10° E daylight
31 Aug - 17:42:32 10° W 17:55:17 63° SSW 18:10:07 10° ESE daylight
31 Aug - 19:48:24 10° W 20:00:52 37° SW 20:13:33 10° SSE daylight
31 Aug - 22:00:19 10° WSW 22:04:43 12° SW 22:09:02 10° SW visible
